OK1FET-5 Weather Reports


Display with metric or nautical units.
time (UTC)temp
F
wind
direction
speed
MPH
gust
MPH
rain 1hr
in
rain 24hr
in
rain mn
in
humidity
%
barometer
mb
20260901154437 81 248 1.0 2.0 0.00 0.00 0.00 40 1021.1
20260901153441 80 252 1.0 5.0 0.00 0.00 0.00 39 1021.1
20260901152445 80 244 1.0 3.0 0.00 0.00 0.00 41 1021.2
20260901151450 79 244 1.0 4.0 0.00 0.00 0.00 40 1021.2
20260901150454 79 269 2.0 6.0 0.00 0.00 0.00 41 1021.2
20260901145458 77 158 1.0 2.0 0.00 0.00 0.00 43 1021.3
20260901144502 76 324 2.0 4.0 0.00 0.00 0.00 42 1021.3
20260901143507 78 299 2.0 4.0 0.00 0.00 0.00 40 1021.4
20260901142511 82 275 4.0 9.0 0.00 0.00 0.00 36 1021.4
20260901141515 83 265 5.0 11.0 0.00 0.00 0.00 34 1021.5
20260901140519 84 272 3.0 6.0 0.00 0.00 0.00 36 1021.4
20260901135524 83 280 4.0 12.0 0.00 0.00 0.00 36 1021.5
20260901134528 83 286 4.0 8.0 0.00 0.00 0.00 36 1021.5
20260901133532 82 282 4.0 9.0 0.00 0.00 0.00 37 1021.7
20260901132536 82 282 4.0 9.0 0.00 0.00 0.00 38 1021.8
20260901131540 83 263 4.0 10.0 0.00 0.00 0.00 38 1021.8
20260901130545 81 256 3.0 6.0 0.00 0.00 0.00 38 1021.8
20260901125549 80 272 4.0 7.0 0.00 0.00 0.00 39 1021.9
20260901124553 82 275 5.0 12.0 0.00 0.00 0.00 37 1022.0
20260901123557 81 272 4.0 11.0 0.00 0.00 0.00 40 1022.1
20260901122601 78 266 3.0 7.0 0.00 0.00 0.00 43 1022.2
20260901121606 77 271 4.0 12.0 0.00 0.00 0.00 42 1022.2
20260901120610 78 272 3.0 7.0 0.00 0.00 0.00 43 1022.2
20260901115614 77 275 5.0 10.0 0.00 0.00 0.00 44 1022.3
20260901114618 77 255 3.0 7.0 0.00 0.00 0.00 45 1022.3
20260901113622 76 256 4.0 10.0 0.00 0.00 0.00 45 1022.3
20260901112627 75 259 4.0 8.0 0.00 0.00 0.00 47 1022.4
20260901111631 76 250 3.0 7.0 0.00 0.00 0.00 46 1022.3
20260901110635 74 268 3.0 7.0 0.00 0.00 0.00 48 1022.3
20260901105639 77 252 4.0 7.0 0.00 0.00 0.00 45 1022.3
20260901104644 78 251 3.0 9.0 0.00 0.00 0.00 45 1022.4
20260901103648 76 265 4.0 11.0 0.00 0.00 0.00 46 1022.4
20260901102652 75 284 4.0 7.0 0.00 0.00 0.00 47 1022.4
20260901100701 73 298 3.0 9.0 0.00 0.00 0.00 51 1022.2
20260901095705 72 292 4.0 9.0 0.00 0.00 0.00 53 1022.2
20260901094709 73 280 5.0 11.0 0.00 0.00 0.00 50 1022.1
20260901093713 73 276 4.0 10.0 0.00 0.00 0.00 52 1022.1
20260901092717 72 266 4.0 10.0 0.00 0.00 0.00 52 1022.2
20260901091722 74 280 5.0 10.0 0.00 0.00 0.00 51 1022.2
20260901090726 73 279 4.0 10.0 0.00 0.00 0.00 53 1022.1
20260901085730 73 273 6.0 11.0 0.00 0.00 0.00 52 1022.0
20260901084734 74 276 7.0 13.0 0.00 0.00 0.00 50 1021.7
20260901083739 75 287 6.0 10.0 0.00 0.00 0.00 50 1021.9
20260901082743 75 287 5.0 11.0 0.00 0.00 0.00 50 1021.7
20260901081747 74 287 5.0 8.0 0.00 0.00 0.00 51 1021.6
20260901080751 74 271 4.0 10.0 0.00 0.00 0.00 51 1021.5
20260901075755 73 280 5.0 9.0 0.00 0.00 0.00 52 1021.5
20260901074800 73 281 6.0 11.0 0.00 0.00 0.00 53 1021.5
20260901073804 73 286 6.0 14.0 0.00 0.00 0.00 53 1021.5
20260901072809 73 275 5.0 9.0 0.00 0.00 0.00 54 1021.4
20260901071812 71 272 6.0 12.0 0.00 0.00 0.00 56 1021.4
20260901070817 71 275 6.0 12.0 0.00 0.00 0.00 56 1021.3
20260901065821 71 276 7.0 15.0 0.00 0.00 0.00 57 1021.3
20260901064825 70 277 6.0 10.0 0.00 0.00 0.00 58 1021.3
20260901063829 69 273 6.0 10.0 0.00 0.00 0.00 60 1021.3
20260901061838 69 273 5.0 11.0 0.00 0.00 0.00 61 1021.3
20260901060842 68 268 4.0 6.0 0.00 0.00 0.00 62 1021.2
20260901055846 67 276 3.0 7.0 0.00 0.00 0.00 63 1021.1
20260901053854 65 269 4.0 7.0 0.00 0.00 0.00 67 1021.0
20260901052859 64 281 4.0 7.0 0.00 0.00 0.00 69 1021.0
20260901051903 63 271 4.0 7.0 0.00 0.00 0.00 70 1020.9
20260901050907 62 292 3.0 7.0 0.00 0.00 0.00 73 1020.8
20260901045911 60 274 4.0 8.0 0.00 0.00 0.00 76 1020.8
20260901044916 58 276 3.0 6.0 0.00 0.00 0.00 78 1020.7
20260901043920 57 286 2.0 5.0 0.00 0.00 0.00 79 1020.7
20260901042924 55 297 1.0 4.0 0.00 0.00 0.00 80 1020.5
20260901041929 55 294 1.0 3.0 0.00 0.00 0.00 81 1020.5
20260901040933 55 295 2.0 4.0 0.00 0.00 0.00 81 1020.5
20260901035937 55 294 2.0 4.0 0.00 0.00 0.00 81 1020.5
20260901034942 55 293 3.0 7.0 0.00 0.00 0.00 81 1020.3
20260901033946 55 295 3.0 6.0 0.00 0.00 0.00 81 1020.2
20260901032950 55 294 3.0 5.0 0.00 0.00 0.00 80 1020.2
20260901031954 56 283 4.0 6.0 0.00 0.00 0.00 80 1020.1
20260901030959 56 281 4.0 6.0 0.00 0.00 0.00 80 1020.2
20260901030003 56 281 4.0 6.0 0.00 0.00 0.00 80 1020.1
20260901025007 56 288 4.0 7.0 0.00 0.00 0.00 79 1020.2
20260901024011 56 301 3.0 5.0 0.00 0.00 0.00 78 1020.1
20260901023015 56 282 4.0 6.0 0.00 0.00 0.00 77 1020.0
20260901022020 57 278 3.0 6.0 0.00 0.00 0.00 77 1019.9
20260901021024 57 268 4.0 8.0 0.00 0.00 0.00 77 1019.8
20260901020028 58 264 4.0 7.0 0.00 0.00 0.00 77 1019.7
20260901015032 58 270 3.0 7.0 0.00 0.00 0.00 76 1019.7
20260901014037 58 280 2.0 6.0 0.00 0.00 0.00 75 1019.6
20260901013041 58 278 3.0 5.0 0.00 0.00 0.00 74 1019.5
20260901012045 58 278 3.0 6.0 0.00 0.00 0.00 74 1019.5
20260901011049 59 278 4.0 7.0 0.00 0.00 0.00 73 1019.5
20260901010053 59 271 3.0 5.0 0.00 0.00 0.00 73 1019.5
20260901005058 59 285 3.0 5.0 0.00 0.00 0.00 72 1019.5
20260901004102 59 290 2.0 6.0 0.00 0.00 0.00 70 1019.6
20260901003106 60 288 3.0 6.0 0.00 0.00 0.00 69 1019.6
20260901001115 62 267 3.0 9.0 0.00 0.00 0.00 67 1019.4
20260901000119 62 270 6.0 11.0 0.00 0.00 0.00 67 1019.4
20260831235123 61 269 5.0 10.0 0.00 0.00 0.00 67 1019.2
20260831234127 62 265 6.0 11.0 0.00 0.00 0.00 67 1018.9
20260831233132 62 257 5.0 8.0 0.00 0.00 0.00 67 1018.9
20260831232136 62 259 6.0 10.0 0.00 0.00 0.00 67 1019.0
20260831231140 62 264 5.0 7.0 0.00 0.00 0.00 67 1019.0
20260831230144 61 265 4.0 7.0 0.00 0.00 0.00 68 1018.9
20260831225149 61 277 3.0 5.0 0.00 0.00 0.00 68 1018.9
20260831224153 62 276 3.0 5.0 0.00 0.00 0.00 67 1018.8
20260831223158 62 275 3.0 6.0 0.00 0.00 0.00 67 1018.8
20260831222201 62 279 3.0 5.0 0.00 0.00 0.00 68 1018.7
20260831221206 62 288 3.0 6.0 0.00 0.00 0.00 67 1018.5
20260831220210 63 278 3.0 6.0 0.00 0.00 0.00 65 1018.5
20260831215214 64 276 4.0 10.0 0.00 0.00 0.00 63 1018.3
20260831214218 64 261 5.0 7.0 0.00 0.00 0.00 62 1018.2
20260831213223 64 257 5.0 9.0 0.00 0.00 0.00 62 1018.0
20260831212227 65 270 5.0 8.0 0.00 0.00 0.00 62 1018.0
20260831211231 65 254 5.0 8.0 0.00 0.00 0.00 62 1017.8
20260831210235 64 253 4.0 7.0 0.00 0.00 0.00 63 1017.9
20260831205239 65 252 4.0 7.0 0.00 0.00 0.00 62 1017.9
20260831204244 65 250 4.0 6.0 0.00 0.00 0.00 62 1017.8
20260831203248 65 251 4.0 6.0 0.00 0.00 0.00 61 1017.6
20260831202252 65 247 4.0 8.0 0.00 0.00 0.00 61 1017.5
20260831201256 65 248 3.0 5.0 0.00 0.00 0.00 62 1017.4
20260831200300 64 257 4.0 8.0 0.00 0.00 0.00 63 1017.4
20260831195306 64 280 5.0 7.0 0.00 0.00 0.00 64 1017.4
20260831194309 63 287 4.0 7.0 0.00 0.00 0.00 64 1017.3
20260831193313 63 298 2.0 3.0 0.00 0.00 0.00 63 1017.4
20260831192317 64 294 2.0 5.0 0.00 0.00 0.00 61 1017.3
20260831191322 65 280 3.0 5.0 0.00 0.00 0.00 60 1017.3
20260831190326 65 277 3.0 5.0 0.00 0.00 0.00 59 1017.1
20260831185330 66 269 4.0 7.0 0.00 0.00 0.00 58 1017.0
20260831184334 67 270 5.0 8.0 0.00 0.00 0.00 57 1016.8
20260831183339 67 279 4.0 7.0 0.00 0.00 0.00 57 1016.8
20260831182343 67 271 5.0 8.0 0.00 0.00 0.00 57 1016.7
20260831181347 67 272 5.0 11.0 0.00 0.00 0.00 57 1016.6
20260831180351 68 271 4.0 8.0 0.00 0.00 0.00 56 1016.4
20260831175356 68 267 4.0 7.0 0.00 0.00 0.00 55 1016.4
20260831174400 69 270 4.0 6.0 0.00 0.00 0.00 54 1016.3
20260831173404 70 275 4.0 8.0 0.00 0.00 0.00 53 1016.2
20260831172408 70 274 3.0 5.0 0.00 0.00 0.00 51 1016.1
20260831171413 71 269 4.0 7.0 0.00 0.00 0.00 50 1016.1
20260831170417 73 269 4.0 7.0 0.00 0.00 0.00 48 1016.0
20260831165421 74 267 5.0 8.0 0.00 0.00 0.00 47 1015.9
20260831164426 76 262 5.0 9.0 0.00 0.00 0.00 45 1016.0
20260831163430 77 256 5.0 8.0 0.00 0.00 0.00 45 1016.0
20260831162434 77 257 4.0 10.0 0.00 0.00 0.00 45 1016.0
20260831160442 77 257 3.0 7.0 0.00 0.00 0.00 47 1016.1
20260831155447 78 270 3.0 7.0 0.00 0.00 0.00 45 1016.1